User: anonymous
Location: Unspecified
(0.0000°N, 0.0000°E)
Time: 09:34:48
(UTC+02:00)
Language:

Resurs 01 Rocket - Orbit

View from above orbital plane
View from above orbital plane
View from above satellite
View from above satellite

Ground track
Ground track

The orbit data is extracted from the following two-line orbital elements,

1 23343U 94074B   14244.05884446  .00000276  00000-0  47744-4 0   944
2 23343 098.2261 249.3201 0008449 101.1615 294.7885 14.76173799 66296
Epoch (UTC): 01 September 2014 01:24:44
Eccentricity: 0.0008449
inclination: 98.2261°
perigee height: 635 km
apogee height: 647 km
right ascension of ascending node: 249.3201°
argument of perigee: 101.1615°
revolutions per day: 14.76173799
mean anomaly at epoch: 294.7885°
orbit number at epoch: 6629

The dashed part of the orbit path shows where the satellite is in the earth's shadow,  

DLR